IT9GFD-13 Weather Reports


Display with metric or nautical units.
time (UTC)temp
F
wind
direction
speed
MPH
gust
MPH
rain 1hr
in
rain 24hr
in
rain mn
in
humidity
%
barometer
mb
20260906072018 83 270 6.0 12.0 0.00 0.00 0.00 73 1021.5
20260906071017 83 270 6.0 12.0 0.00 0.00 0.00 73 1021.5
20260906070017 83 270 6.0 11.0 0.00 0.00 0.00 75 1021.6
20260906065017 82 315 8.0 13.0 0.00 0.00 0.00 77 1021.4
20260906064038 82 293 7.0 13.0 0.00 0.00 0.00 78 1021.6
20260906063018 82 293 8.0 14.0 0.00 0.00 0.00 78 1021.6
20260906062017 81 293 8.0 13.0 0.00 0.00 0.00 78 1021.4
20260906061017 81 315 7.0 12.0 0.00 0.00 0.00 79 1021.3
20260906060017 81 293 9.0 14.0 0.00 0.00 0.00 79 1021.2
20260906055037 81 293 9.0 16.0 0.00 0.00 0.00 80 1021.0
20260906054037 81 315 7.0 15.0 0.00 0.00 0.00 81 1020.9
20260906053017 80 315 7.0 11.0 0.00 0.00 0.00 81 1020.3
20260906052017 80 315 7.0 13.0 0.00 0.00 0.00 81 1018.7
20260906051017 80 293 8.0 13.0 0.00 0.00 0.00 82 1018.2
20260906050017 80 293 5.0 10.0 0.00 0.00 0.00 82 1018.2
20260906045017 79 293 5.0 12.0 0.00 0.00 0.00 82 1018.0
20260906044017 80 293 5.0 11.0 0.00 0.00 0.00 82 1018.2
20260906043017 80 315 7.0 12.0 0.00 0.00 0.00 82 1018.1
20260906042017 80 270 4.0 8.0 0.00 0.00 0.00 82 1017.9
20260906041017 80 270 7.0 15.0 0.00 0.00 0.00 82 1017.9
20260906040017 80 315 10.0 17.0 0.00 0.00 0.00 82 1017.8
20260906035017 80 293 7.0 13.0 0.00 0.00 0.00 82 1017.7
20260906034017 80 293 8.0 14.0 0.00 0.00 0.00 81 1017.6
20260906033017 80 315 5.0 10.0 0.00 0.00 0.00 81 1017.6
20260906032017 80 293 7.0 13.0 0.00 0.00 0.00 81 1017.5
20260906031017 80 315 8.0 14.0 0.00 0.00 0.00 80 1017.7
20260906030037 80 315 6.0 12.0 0.00 0.00 0.00 80 1017.8
20260906025017 80 315 7.0 13.0 0.00 0.00 0.00 80 1018.0
20260906024017 80 293 6.0 12.0 0.00 0.00 0.00 81 1017.8
20260906023016 80 270 8.0 14.0 0.00 0.00 0.00 80 1017.9
20260906022017 80 315 7.0 16.0 0.00 0.00 0.00 80 1018.0
20260906021017 80 270 6.0 13.0 0.00 0.00 0.00 80 1017.8
20260906020036 80 315 5.0 13.0 0.00 0.00 0.00 81 1017.9
20260906015016 80 293 7.0 13.0 0.00 0.00 0.00 80 1017.8
20260906014017 80 293 6.0 17.0 0.00 0.00 0.00 80 1017.9
20260906013016 80 315 8.0 15.0 0.00 0.00 0.00 80 1017.8
20260906012017 80 270 8.0 16.0 0.00 0.00 0.00 80 1017.7
20260906011016 80 293 8.0 14.0 0.00 0.00 0.00 80 1017.8
20260906010057 80 293 8.0 13.0 0.00 0.00 0.00 80 1017.7
20260906005017 80 293 6.0 15.0 0.00 0.00 0.00 81 1017.7
20260906004016 80 293 5.0 10.0 0.00 0.00 0.00 81 1017.7
20260906003017 81 315 6.0 11.0 0.00 0.00 0.00 81 1017.7
20260906002016 81 315 5.0 10.0 0.00 0.00 0.00 81 1017.5
20260906001016 81 293 5.0 10.0 0.00 0.00 0.00 82 1017.7
20260906000017 81 315 4.0 8.0 0.00 0.00 0.00 82 1017.6
20260905235016 81 293 4.0 8.0 0.00 0.00 0.00 82 1017.7
20260905234037 81 293 3.0 6.0 0.00 0.00 0.00 82 1017.6
20260905233016 81 315 2.0 6.0 0.00 0.00 0.00 82 1017.7
20260905232017 81 23 3.0 7.0 0.00 0.00 0.00 82 1017.6
20260905231016 81 293 3.0 5.0 0.00 0.00 0.00 82 1017.6
20260905230016 81 270 2.0 6.0 0.00 0.00 0.00 82 1017.5
20260905225016 81 338 1.0 4.0 0.00 0.00 0.00 82 1017.4
20260905224016 81 293 3.0 7.0 0.00 0.00 0.00 82 1017.3
20260905223016 81 270 3.0 7.0 0.00 0.00 0.00 82 1017.5
20260905222017 81 293 4.0 7.0 0.00 0.00 0.00 82 1017.4
20260905221017 81 248 2.0 5.0 0.00 0.00 0.00 82 1017.1
20260905220016 81 293 2.0 6.0 0.00 0.00 0.00 82 1017.0
20260905215036 81 270 3.0 6.0 0.00 0.00 0.00 82 1016.7
20260905214016 81 270 3.0 4.0 0.00 0.00 0.00 81 1016.1
20260905213016 81 270 2.0 4.0 0.00 0.00 0.00 81 1016.3
20260905212017 81 270 2.0 4.0 0.00 0.00 0.00 81 1016.4
20260905211016 81 270 3.0 5.0 0.00 0.00 0.00 81 1016.6
20260905210016 81 270 3.0 6.0 0.00 0.00 0.00 80 1016.5
20260905205016 81 270 3.0 4.0 0.00 0.00 0.00 80 1016.6
20260905204016 81 270 2.0 3.0 0.00 0.00 0.00 80 1016.7
20260905203016 81 270 3.0 4.0 0.00 0.00 0.00 80 1016.9
20260905202016 81 270 3.0 4.0 0.00 0.00 0.00 79 1016.9
20260905201016 81 270 3.0 7.0 0.00 0.00 0.00 79 1017.0
20260905200056 82 270 3.0 4.0 0.00 0.00 0.00 79 1017.1
20260905195036 82 270 4.0 7.0 0.00 0.00 0.00 79 1017.2
20260905194016 82 270 4.0 8.0 0.00 0.00 0.00 79 1017.1
20260905193016 82 270 5.0 8.0 0.00 0.00 0.00 79 1017.1
20260905192016 82 270 5.0 8.0 0.00 0.00 0.00 79 1017.2
20260905191016 82 270 5.0 9.0 0.00 0.00 0.00 78 1017.2
20260905190036 82 270 5.0 8.0 0.00 0.00 0.00 78 1017.0
20260905185036 82 248 2.0 7.0 0.00 0.00 0.00 78 1016.8
20260905184016 82 270 5.0 9.0 0.00 0.00 0.00 78 1016.8
20260905183016 82 248 5.0 12.0 0.00 0.00 0.00 78 1016.7
20260905182016 83 293 3.0 7.0 0.00 0.00 0.00 77 1016.5
20260905181016 83 293 4.0 7.0 0.00 0.00 0.00 76 1016.5
20260905180016 83 293 4.0 8.0 0.00 0.00 0.00 75 1016.5
20260905175016 83 293 2.0 4.0 0.00 0.00 0.00 74 1016.5
20260905174036 83 248 4.0 9.0 0.00 0.00 0.00 73 1016.7
20260905173036 83 270 3.0 8.0 0.00 0.00 0.00 72 1016.7
20260905172016 84 293 4.0 9.0 0.00 0.00 0.00 72 1016.5
20260905171016 84 293 3.0 8.0 0.00 0.00 0.00 71 1016.5
20260905170016 84 270 6.0 9.0 0.00 0.00 0.00 70 1016.6
20260905165016 84 270 4.0 10.0 0.00 0.00 0.00 69 1016.7
20260905164016 85 315 3.0 9.0 0.00 0.00 0.00 68 1016.7
20260905163015 85 338 3.0 10.0 0.00 0.00 0.00 69 1016.8
20260905162015 85 293 7.0 13.0 0.00 0.00 0.00 68 1016.9
20260905161016 85 315 6.0 11.0 0.00 0.00 0.00 67 1017.0
20260905160016 86 338 5.0 11.0 0.00 0.00 0.00 65 1016.7
20260905155036 86 270 7.0 12.0 0.00 0.00 0.00 63 1016.8
20260905154016 87 270 5.0 11.0 0.00 0.00 0.00 61 1016.9
20260905153019 87 270 5.0 11.0 0.00 0.00 0.00 59 1016.9
20260905152015 88 315 4.0 10.0 0.00 0.00 0.00 54 1017.0
20260905151016 89 293 4.0 9.0 0.00 0.00 0.00 49 1016.8
20260905150015 89 248 2.0 8.0 0.00 0.00 0.00 46 1016.9
20260905145015 90 315 6.0 14.0 0.00 0.00 0.00 46 1017.1
20260905144015 90 293 3.0 5.0 0.00 0.00 0.00 53 1017.0
20260905143015 90 293 8.0 15.0 0.00 0.00 0.00 54 1017.1
20260905142016 90 293 2.0 11.0 0.00 0.00 0.00 54 1017.1
20260905141016 90 270 5.0 11.0 0.00 0.00 0.00 53 1017.3
20260905140016 90 293 7.0 13.0 0.00 0.00 0.00 52 1017.5
20260905135015 90 293 7.0 13.0 0.00 0.00 0.00 50 1017.7
20260905134015 87 293 7.0 10.0 0.00 0.00 0.00 49 1017.7
20260905133015 88 113 8.0 16.0 0.00 0.00 0.00 67 1018.0
20260905132015 91 90 3.0 10.0 0.00 0.00 0.00 51 1018.1
20260905131035 91 293 3.0 8.0 0.00 0.00 0.00 52 1018.2
20260905130015 91 0 5.0 11.0 0.00 0.00 0.00 42 1018.2
20260905125015 91 293 7.0 15.0 0.00 0.00 0.00 40 1018.7
20260905124015 91 293 3.0 8.0 0.00 0.00 0.00 43 1018.8
20260905123015 90 315 6.0 11.0 0.00 0.00 0.00 43 1018.6
20260905122015 89 68 3.0 11.0 0.00 0.00 0.00 52 1019.5
20260905121017 89 293 5.0 11.0 0.00 0.00 0.00 45 1020.6
20260905120057 89 315 7.0 15.0 0.00 0.00 0.00 46 1020.8
20260905115016 89 315 8.0 15.0 0.00 0.00 0.00 46 1020.8
20260905114038 89 45 4.0 9.0 0.00 0.00 0.00 60 1021.1
20260905113017 89 270 7.0 16.0 0.00 0.00 0.00 48 1021.0
20260905112017 88 338 5.0 11.0 0.00 0.00 0.00 49 1021.0
20260905111018 88 90 6.0 16.0 0.00 0.00 0.00 62 1021.0
20260905110017 90 293 5.0 11.0 0.00 0.00 0.00 49 1021.0
20260905105018 90 293 3.0 10.0 0.00 0.00 0.00 50 1021.0
20260905104017 89 90 3.0 11.0 0.00 0.00 0.00 55 1020.9
20260905103037 89 293 5.0 9.0 0.00 0.00 0.00 53 1020.9
20260905102017 88 315 5.0 11.0 0.00 0.00 0.00 54 1021.1
20260905101017 87 90 3.0 13.0 0.00 0.00 0.00 59 1021.0
20260905100017 87 68 3.0 10.0 0.00 0.00 0.00 64 1021.1
20260905095017 86 90 5.0 9.0 0.00 0.00 0.00 68 1021.1
20260905094017 86 135 6.0 12.0 0.00 0.00 0.00 68 1021.1
20260905093037 86 113 7.0 14.0 0.00 0.00 0.00 69 1021.1
20260905092017 86 90 8.0 18.0 0.00 0.00 0.00 67 1020.9
20260905091017 87 270 5.0 13.0 0.00 0.00 0.00 58 1021.1
20260905090017 85 113 5.0 11.0 0.00 0.00 0.00 70 1021.1
20260905085017 85 113 6.0 14.0 0.00 0.00 0.00 69 1021.3
20260905084017 85 113 8.0 17.0 0.00 0.00 0.00 71 1021.5
20260905083017 86 113 7.0 14.0 0.00 0.00 0.00 70 1021.2
20260905082017 86 248 4.0 9.0 0.00 0.00 0.00 68 1021.1
20260905081017 86 315 2.0 7.0 0.00 0.00 0.00 68 1021.0
20260905080017 85 315 4.0 9.0 0.00 0.00 0.00 66 1020.9
20260905075017 85 270 5.0 8.0 0.00 0.00 0.00 68 1020.9
20260905074017 84 293 4.0 7.0 0.00 0.00 0.00 70 1020.9
20260905073017 84 248 4.0 8.0 0.00 0.00 0.00 71 1021.0